This is the latest recevied weather packets stored in our database for station/object KR0L-13. If no packets are shown the sender has not sent any weather packets the latest 10 day(s).
| Time | Temp. | Humidity | Pressure | Rain* | Wind** | Luminosity | Snow |
|---|---|---|---|---|---|---|---|
| 1777489521 | 15° C | 54% | 1020.1 hPa | 0 mm | - | - | - |
| 1777488921 | 15° C | 54% | 1020.3 hPa | 0 mm | - | - | - |
| 1777488321 | 15° C | 57% | 1020.3 hPa | 0 mm | - | - | - |
| 1777487721 | 15° C | 56% | 1020.5 hPa | 0 mm | - | - | - |
| 1777487121 | 14.44° C | 57% | 1020.5 hPa | 0 mm | - | - | - |
| 1777486521 | 14.44° C | 56% | 1020.7 hPa | 0 mm | - | - | - |
| 1777485921 | 14.44° C | 60% | 1020.9 hPa | 0 mm | - | - | - |
| 1777485321 | 13.89° C | 60% | 1021 hPa | 0 mm | - | - | - |
| 1777484721 | 13.33° C | 61% | 1021.3 hPa | 0 mm | - | - | - |
| 1777484121 | 12.78° C | 63% | 1021.5 hPa | 0 mm | - | - | - |
| 1777483521 | 12.78° C | 63% | 1021.7 hPa | 0 mm | - | - | - |
| 1777482921 | 12.78° C | 63% | 1021.9 hPa | 0 mm | - | - | - |
| 1777482321 | 12.78° C | 64% | 1022.1 hPa | 0 mm | - | - | - |
| 1777481721 | 12.22° C | 63% | 1022.2 hPa | 0 mm | - | - | - |
| 1777481120 | 12.22° C | 67% | 1022.4 hPa | 0 mm | - | - | - |
| 1777480521 | 11.67° C | 66% | 1022.3 hPa | 0 mm | - | - | - |
| 1777479921 | 11.67° C | 68% | 1022.2 hPa | 0 mm | - | - | - |
| 1777479321 | 11.67° C | 67% | 1022.4 hPa | 0 mm | - | - | - |
| 1777478720 | 11.67° C | 67% | 1022.6 hPa | 0 mm | - | - | - |
| 1777478121 | 11.67° C | 68% | 1022.6 hPa | 0 mm | - | - | - |
| 1777477521 | 11.11° C | 69% | 1022.6 hPa | 0 mm | - | - | - |
| 1777476921 | 11.11° C | 73% | 1022.5 hPa | 0 mm | - | - | - |
| 1777476320 | 10.56° C | 71% | 1022.5 hPa | 0 mm | - | - | - |
| 1777475721 | 10.56° C | 72% | 1022.4 hPa | 0 mm | - | - | - |
| 1777475121 | 10° C | 75% | 1022.5 hPa | 0 mm | - | - | - |
* Rain latest hour (hover to see other rain measurements)
** Current wind speed in m/s (hover to see current wind gust speed)